Rogers, AR

3:32 AM CST on February 28, 2017 (GMT -0600)
Rogers Municipal-Carter

Weather History for KROG - April, 2013

Change the Weather History Date:

Saturday, April 6, 2013

  Actual Average Record
Temperature  
Mean Temperature 64 °F -  
Max Temperature 73 °F 62 °F 78 °F (2001)
Min Temperature 55 °F 43 °F 26 °F (2007)
Degree Days  
Heating Degree Days 1    
Growing Degree Days 14 (Base 50)    
Moisture  
Dew Point 42 °F    
Average Humidity 47    
Maximum Humidity 60    
Minimum Humidity 34    
Precipitation  
Precipitation 0.00 in - - ()
Sea Level Pressure  
Sea Level Pressure 29.89 in    
Wind  
Wind Speed 14 mph (SSW)    
Max Wind Speed 25 mph    
Max Gust Speed 38 mph    
Visibility 10 miles    
Events      
Averages and records for this station are not official NWS values.
T = Trace of Precipitation, MM = Missing Value Source: NWS Daily Summary

Daily Weather History Graph

Daily Weather History Graph

Search for Another Location

Airport or City:

Trip Planner

Search our weather history database for the weather conditions in past years. The results will help you decide how hot, cold, wet, or windy it might be!

Date:

Astronomy

Apr. 06, 2013 Rise Set
Actual Time 6:54 AM CDT 7:43 PM CDT
Civil Twilight 6:28 AM CDT 8:09 PM CDT
Nautical Twilight 5:58 AM CDT 8:40 PM CDT
Astronomical Twilight 5:26 AM CDT 9:12 PM CDT
Moon 4:32 AM CDT (4/6) 4:17 PM CDT (4/6)
Length of Visible Light 13h 40m
Length of Day
12h 48m
Waning Crescent, 15% of the Moon is Illuminated
Apr 6
Waning Crescent
Apr 10
New
Apr 18
First Quarter
Apr 25
Full
May 2
Last Quarter

Hourly Weather History & Observations

Time (CDT) Temp. Dew Point Humidity Pressure Visibility Wind Dir Wind Speed Gust Speed Precip Events Conditions
12:57 AM 55.9 °F 33.1 °F 42% 29.98 in 10.0 mi SSE 9.2 mph - N/A   Clear
1:57 AM 55.0 °F 34.0 °F 45% 29.98 in 10.0 mi South 8.1 mph - N/A   Clear
2:57 AM 55.0 °F 36.0 °F 49% 29.95 in 10.0 mi SSE 9.2 mph - N/A   Clear
3:57 AM 55.9 °F 37.0 °F 49% 29.92 in 10.0 mi SSE 15.0 mph - N/A   Clear
4:57 AM 55.9 °F 37.0 °F 49% 29.91 in 10.0 mi SSE 15.0 mph - N/A   Clear
5:57 AM 55.9 °F 37.0 °F 49% 29.90 in 10.0 mi SSE 12.7 mph - N/A   Clear
6:57 AM 55.0 °F 39.0 °F 55% 29.93 in 10.0 mi South 9.2 mph - N/A   Clear
7:57 AM 55.9 °F 39.9 °F 55% 29.93 in 10.0 mi South 17.3 mph 23.0 mph N/A   Partly Cloudy
8:57 AM 57.9 °F 42.1 °F 56% 29.93 in 10.0 mi South 15.0 mph - N/A   Clear
9:57 AM 60.1 °F 44.1 °F 55% 29.96 in 10.0 mi SW 18.4 mph 25.3 mph N/A   Partly Cloudy
10:57 AM 64.9 °F 45.0 °F 48% 29.90 in 10.0 mi South 24.2 mph 38.0 mph N/A   Clear
11:57 AM 66.9 °F 43.0 °F 42% 29.88 in 10.0 mi SSW 24.2 mph 35.7 mph N/A   Clear
12:57 PM 70.0 °F 43.0 °F 38% 29.85 in 10.0 mi South 21.9 mph 35.7 mph N/A   Clear
1:57 PM 71.1 °F 45.0 °F 39% 29.83 in 10.0 mi SSW 25.3 mph 33.4 mph N/A   Clear
2:57 PM 72.0 °F 44.1 °F 37% 29.82 in 10.0 mi SSW 21.9 mph 33.4 mph N/A   Clear
3:57 PM 73.9 °F 44.1 °F 34% 29.81 in 10.0 mi SSW 20.7 mph 29.9 mph N/A   Clear
4:57 PM 73.0 °F 44.1 °F 35% 29.79 in 10.0 mi SW 21.9 mph 27.6 mph N/A   Clear
5:57 PM 72.0 °F 45.0 °F 38% 29.81 in 10.0 mi SW 13.8 mph 23.0 mph N/A   Clear
6:57 PM 69.1 °F 46.0 °F 44% 29.83 in 10.0 mi SW 11.5 mph - N/A   Clear
7:57 PM 66.9 °F 46.0 °F 47% 29.85 in 10.0 mi WSW 9.2 mph - N/A   Clear
8:57 PM 64.0 °F 46.9 °F 54% 29.86 in 10.0 mi SW 9.2 mph - N/A   Clear
9:57 PM 63.0 °F 46.0 °F 54% 29.88 in 10.0 mi SSW 8.1 mph - N/A   Clear
10:57 PM 61.0 °F 46.9 °F 60% 29.88 in 10.0 mi South 8.1 mph - N/A   Clear
11:57 PM 62.1 °F 48.0 °F 60% 29.88 in 10.0 mi SSW 9.2 mph - N/A   Overcast